• Join FlightAware (Why Join?)
  • Login
  • US Flag 
01:34AM EDT


 

Airport Tracker/Info


-or-


 

Live Flight TrackerFlight Track Log ✈ CJC3915 ✈ 29-Apr-2012 ✈ KALB - KIAD

Flight Track Log - Related Links

Times and Time Zones

All times are in EDT time to prevent confusion due to time zone crossing. See the CJC3915 flight status page for this flight to view local times or setup timezone preferences in your user account.

Time Position Orientation Groundspeed Altitude Reporting Facility
EDT Latitude Longitude Course Direction KTS MPH feet Rate Location/Type
05:50AM 42.7672 -73.8061 345° North 175 201 1,600  Level Boston Center
05:51AM 42.8089 -73.8211 277° West 223 257 3,800 2,460 Climbing Boston Center
05:52AM 42.8161 -73.8978 258° West 207 238 6,300 2,400 Climbing Boston Center
05:53AM 42.8025 -73.9822 241° Southwest 216 249 8,700 2,280 Climbing Boston Center
05:54AM 42.7681 -74.0664 236° Southwest 236 272 10,900 1,860 Climbing Boston Center
05:55AM 42.7272 -74.1472 235° Southwest 249 287 12,500 1,500 Climbing Boston Center
05:56AM 42.6822 -74.2336 236° Southwest 284 327 14,000 1,320 Climbing Boston Center
05:57AM 42.6369 -74.3253 235° Southwest 291 335 15,200 1,380 Climbing Boston Center
05:58AM 42.5875 -74.4197 235° Southwest 302 348 16,800 1,200 Climbing Boston Center
06:01AM 42.4433 -74.6989 235° Southwest 294 338 20,500 1,080 Climbing New York Center
06:02AM 42.3942 -74.7942 235° Southwest 294 338 21,500 720 Climbing New York Center
06:03AM 42.3497 -74.8814 234° Southwest 289 333 22,000 240 Climbing New York Center
06:04AM 42.3006 -74.9736 237° Southwest 296 341 22,000  Level New York Center
06:05AM 42.2514 -75.0739 235° Southwest 313 360 22,000  Level New York Center
06:06AM 42.2019 -75.1686 234° Southwest 318 366 22,000  Level New York Center
06:07AM 42.1506 -75.2631 236° Southwest 318 366 22,000  Level New York Center
06:08AM 42.1011 -75.3603 236° Southwest 318 366 22,000  Level New York Center
06:09AM 42.0536 -75.4547 234° Southwest 318 366 22,000 -60 Level New York Center
06:10AM 42.0022 -75.5489 234° Southwest 318 366 21,900 -420 Descending New York Center
06:11AM 41.9503 -75.6456 235° Southwest 318 366 21,200 -720 Descending New York Center
06:12AM 41.9006 -75.7394 235° Southwest 318 366 20,500 -720 Descending New York Center
06:13AM 41.8486 -75.8386 234° Southwest 324 373 19,800 -720 Descending New York Center
06:14AM 41.7944 -75.9372 235° Southwest 329 379 19,100 -720 Descending New York Center
06:15AM 41.7397 -76.0414 233° Southwest 340 391 18,400 -660 Descending New York Center
06:16AM 41.6878 -76.1344 234° Southwest 345 397 17,800 -600 Descending New York Center
06:17AM 41.6331 -76.2356 234° Southwest 345 397 17,300 -600 Descending New York Center
06:18AM 41.5717 -76.3472 234° Southwest 345 397 16,600 -600 Descending New York Center
06:19AM 41.5169 -76.4478 233° Southwest 345 397 16,100 -300 Descending New York Center
06:20AM 41.4667 -76.5378 225° Southwest 345 397 16,000 -60 Descending New York Center
06:21AM 41.4000 -76.6261 198° South 345 397 16,000  Level New York Center
06:22AM 41.2914 -76.6719 197° South 358 412 16,100  Climbing New York Center
06:23AM 41.1914 -76.7128 195° South 377 434 16,100 -60 Level New York Center
06:24AM 41.0917 -76.7481 195° South 377 434 16,000 -60 Descending New York Center
06:25AM 41.0006 -76.7814 195° South 377 434 16,000  Level New York Center
06:26AM 40.8900 -76.8211 194° South 377 434 16,100  Climbing New York Center
06:27AM 40.7883 -76.8558 195° South 377 434 16,100  Level New York Center
06:28AM 40.6906 -76.8911 194° South 382 440 16,100 -60 Level New York Center
06:29AM 40.5931 -76.9233 194° South 382 440 16,000 -60 Descending New York Center
06:30AM 40.4933 -76.9553 194° South 376 433 16,000  Level New York Center
06:31AM 40.3939 -76.9872 196° South 376 433 16,000  Level New York Center
06:32AM 40.2981 -77.0222 193° South 371 427 16,000 -720 Level New York Center
06:34AM 40.1000 -77.0833 197° South 356 410 13,900 -1,320 Descending Potomac TRACON
06:35AM 40.0167 -77.1167 197° South 343 395 12,400 -1,860 Descending Potomac TRACON
06:36AM 39.9333 -77.1500 205° Southwest 335 386 10,600 -1,200 Descending Potomac TRACON
06:37AM 39.8500 -77.2000 205° Southwest 317 365 10,100 -300 Descending Potomac TRACON
06:38AM 39.7667 -77.2500 201° Southwest 320 368 10,100  Level Potomac TRACON
06:39AM 39.7000 -77.2833 187° South 328 377 10,100 -480 Level Potomac TRACON
06:40AM 39.6000 -77.3000 191° South 299 344 9,200 -960 Descending Potomac TRACON
06:41AM 39.5333 -77.3167 180° South 299 344 8,300 -1,020 Descending Potomac TRACON
06:42AM 39.4500 -77.3167 191° South 281 323 7,300 -960 Descending Potomac TRACON
06:43AM 39.3833 -77.3333 189° South 279 321 6,400 -900 Descending Potomac TRACON
06:44AM 39.3000 -77.3500 191° South 267 307 5,500 -900 Descending Potomac TRACON
06:45AM 39.2333 -77.3667 169° South 261 300 4,600 -720 Descending Potomac TRACON
06:46AM 39.1667 -77.3500 180° South 255 293 4,100 -360 Descending Potomac TRACON
06:47AM 39.0833 -77.3500 180° South 266 306 4,000 -60 Descending Potomac TRACON
06:48AM 39.0167 -77.3500 180° South 264 304 4,000  Level Potomac TRACON
06:49AM 38.9500 -77.3500 180° South 267 307 4,100 -300 Climbing Potomac TRACON
06:50AM 38.8833 -77.3500 191° South 261 300 3,400 -600 Descending Potomac TRACON
06:51AM 38.8167 -77.3667 180° South 227 261 3,000 -240 Descending Potomac TRACON
06:52AM 38.7500 -77.3667 252° West 228 262 3,000  Level Potomac TRACON
06:53AM 38.7333 -77.4333 360° North 232 267 3,000  Level Potomac TRACON
06:54AM 38.8000 -77.4333 360° North 210 242 3,000 -600 Level Potomac TRACON
06:55AM 38.8500 -77.4333 360° North 190 219 1,900 -1,020 Descending Potomac TRACON
06:56AM 38.9000 -77.4333 360° North 140 161 1,000 -900 Descending Potomac TRACON